AMX6767 MMOX-MMAA

Flight info

Callsign AMX6767
Flight time 0h 25m
Altitude 26000
Route MASAS3 MASAS DCT ANVAN ANVAN1B
Aircraft B738/M-SDE2E3FGHIRWXY/LB1

Departure

Time 2026-05-09 01:50
Airport Xoxocotlán International Airport (MMOX)

Arrival

Time 2026-05-09 02:15
Airport General Juan N. Álvarez International Airport (MMAA)
Time Latitude Longitude Altitude Speed Heading
2026-05-09 00:58 17.00098 -96.72268 4993 ft 0 kts 105°
2026-05-09 01:38 17.00099 -96.72272 4994 ft 2 kts 105°
2026-05-09 01:38 17.00103 -96.72289 4994 ft 2 kts 102°
2026-05-09 01:38 17.00106 -96.72306 4994 ft 2 kts 96°
2026-05-09 01:39 17.00106 -96.72323 4994 ft 2 kts 63°
2026-05-09 01:39 17.00095 -96.72333 4994 ft 1 kts 17°
2026-05-09 01:39 17.00093 -96.72334 4993 ft 0 kts 16°
2026-05-09 01:45 17.00124 -96.72325 4993 ft 8 kts 16°
2026-05-09 01:46 17.00200 -96.72303 4993 ft 14 kts 18°
2026-05-09 01:46 17.00256 -96.72292 4993 ft 6 kts 352°
2026-05-09 01:46 17.00292 -96.72342 4991 ft 13 kts 286°
2026-05-09 01:46 17.00336 -96.72445 4987 ft 14 kts 334°
2026-05-09 01:47 17.00437 -96.72431 4990 ft 16 kts 18°
2026-05-09 01:47 17.00563 -96.72394 4991 ft 21 kts 15°
2026-05-09 01:47 17.00720 -96.72349 4993 ft 25 kts 17°
2026-05-09 01:47 17.00885 -96.72356 4993 ft 20 kts 356°
2026-05-09 01:48 17.00898 -96.72304 4992 ft 8 kts 151°
2026-05-09 01:48 17.00859 -96.72308 4993 ft 0 kts 198°
2026-05-09 01:49 17.00856 -96.72308 4993 ft 2 kts 198°
2026-05-09 01:49 17.00807 -96.72324 4993 ft 19 kts 196°
2026-05-09 01:49 17.00431 -96.72433 4990 ft 92 kts 195°
2026-05-09 01:49 16.99597 -96.72674 4991 ft 153 kts 195°
2026-05-09 01:50 16.98438 -96.73044 5217 ft 189 kts 197°
2026-05-09 01:50 16.97164 -96.73344 6297 ft 186 kts 184°
2026-05-09 01:50 16.95915 -96.73441 7016 ft 182 kts 191°
2026-05-09 01:50 16.94622 -96.73866 7253 ft 209 kts 197°
2026-05-09 01:51 16.93173 -96.74325 7565 ft 221 kts 193°
2026-05-09 01:51 16.91692 -96.74701 8138 ft 222 kts 192°
2026-05-09 01:51 16.90101 -96.75108 8181 ft 249 kts 191°
2026-05-09 01:51 16.88372 -96.75541 8531 ft 260 kts 192°
2026-05-09 01:52 16.86621 -96.75988 9050 ft 264 kts 192°
2026-05-09 01:52 16.84830 -96.76456 9635 ft 267 kts 192°
2026-05-09 01:52 16.83014 -96.76937 10166 ft 271 kts 192°
2026-05-09 01:52 16.81177 -96.77427 10678 ft 274 kts 192°
2026-05-09 01:53 16.77534 -96.78495 11665 ft 280 kts 196°
2026-05-09 01:53 16.73862 -96.79827 11837 ft 283 kts 197°
2026-05-09 01:53 16.70103 -96.81191 11797 ft 287 kts 197°
2026-05-09 01:53 16.66338 -96.82540 12085 ft 286 kts 197°
2026-05-09 01:54 16.62551 -96.83885 13237 ft 288 kts 197°
2026-05-09 01:54 16.58534 -96.85310 14286 ft 292 kts 197°
2026-05-09 01:54 16.52814 -96.87338 15690 ft 297 kts 198°
2026-05-09 01:54 16.48937 -96.88875 16613 ft 302 kts 211°
2026-05-09 01:55 16.45963 -96.91976 17543 ft 308 kts 237°
2026-05-09 01:55 16.44388 -96.96091 18371 ft 315 kts 264°
2026-05-09 01:55 16.44403 -97.00669 19162 ft 318 kts 271°
2026-05-09 01:55 16.44550 -97.05306 19925 ft 321 kts 271°
2026-05-09 01:56 16.44697 -97.09972 20711 ft 324 kts 270°
2026-05-09 01:56 16.44838 -97.14691 21461 ft 327 kts 270°
2026-05-09 01:56 16.44974 -97.19452 22163 ft 331 kts 270°
2026-05-09 01:56 16.45108 -97.24269 22855 ft 334 kts 270°
2026-05-09 01:57 16.45243 -97.29135 23500 ft 337 kts 270°
2026-05-09 01:57 16.45378 -97.34041 24068 ft 339 kts 270°
2026-05-09 01:57 16.45510 -97.38902 24608 ft 342 kts 270°
2026-05-09 01:57 16.45643 -97.43871 25144 ft 344 kts 270°
2026-05-09 01:58 16.45777 -97.48881 25667 ft 346 kts 270°
2026-05-09 01:58 16.45910 -97.53954 25836 ft 355 kts 270°
2026-05-09 01:58 16.46046 -97.59136 25826 ft 360 kts 270°
2026-05-09 01:58 16.46181 -97.64315 25795 ft 353 kts 270°
2026-05-09 01:59 16.46311 -97.69350 25781 ft 343 kts 270°
2026-05-09 01:59 16.46436 -97.74287 25801 ft 340 kts 270°
2026-05-09 01:59 16.46561 -97.79245 25815 ft 345 kts 270°
2026-05-09 01:59 16.46686 -97.84290 25819 ft 352 kts 270°
2026-05-09 02:00 16.46805 -97.89120 25809 ft 355 kts 270°
2026-05-09 02:00 16.46868 -97.91677 25783 ft 349 kts 270°
2026-05-09 02:00 16.46891 -97.94164 25749 ft 335 kts 270°
2026-05-09 02:00 16.46939 -97.96544 25648 ft 322 kts 270°
2026-05-09 02:01 16.47004 -97.98823 25398 ft 315 kts 270°
2026-05-09 02:01 16.47070 -98.01084 25020 ft 311 kts 271°
2026-05-09 02:01 16.47160 -98.03351 24447 ft 319 kts 272°
2026-05-09 02:01 16.47317 -98.05497 23943 ft 274 kts 272°
2026-05-09 02:02 16.47512 -98.07872 21977 ft 342 kts 274°
2026-05-09 02:02 16.47658 -98.10378 21006 ft 354 kts 269°
2026-05-09 02:02 16.47736 -98.12947 20135 ft 359 kts 269°
2026-05-09 02:02 16.47723 -98.15504 19784 ft 342 kts 268°
2026-05-09 02:03 16.47692 -98.17903 19690 ft 324 kts 268°
2026-05-09 02:03 16.47677 -98.20239 19434 ft 322 kts 269°
2026-05-09 02:03 16.47681 -98.22589 19245 ft 339 kts 269°
2026-05-09 02:03 16.47751 -98.25134 19045 ft 358 kts 270°
2026-05-09 02:04 16.47797 -98.27733 18825 ft 360 kts 270°
2026-05-09 02:04 16.47832 -98.30337 18601 ft 358 kts 270°
2026-05-09 02:04 16.47870 -98.32925 18381 ft 356 kts 270°
2026-05-09 02:04 16.47914 -98.35503 18162 ft 355 kts 270°
2026-05-09 02:05 16.47962 -98.38074 17922 ft 354 kts 270°
2026-05-09 02:05 16.48016 -98.40710 17678 ft 352 kts 270°
2026-05-09 02:05 16.48232 -98.50752 16838 ft 345 kts 270°
2026-05-09 02:05 16.48447 -98.60790 15921 ft 348 kts 270°
2026-05-09 02:06 16.48659 -98.70919 15018 ft 350 kts 270°
2026-05-09 02:06 16.48866 -98.80993 13894 ft 342 kts 270°
2026-05-09 02:06 16.49063 -98.90805 12443 ft 336 kts 270°
2026-05-09 02:07 16.54360 -99.09131 9821 ft 317 kts 288°
2026-05-09 02:07 16.57049 -99.17279 9157 ft 291 kts 288°
2026-05-09 02:07 16.59616 -99.25139 8084 ft 284 kts 288°
2026-05-09 02:07 16.62148 -99.32869 6978 ft 279 kts 288°
2026-05-09 02:08 16.63092 -99.35754 6585 ft 278 kts 288°
2026-05-09 02:08 16.63715 -99.37662 6307 ft 278 kts 288°
2026-05-09 02:08 16.64334 -99.39558 6071 ft 275 kts 288°
2026-05-09 02:08 16.64948 -99.41438 5811 ft 273 kts 288°
2026-05-09 02:09 16.65561 -99.43314 5566 ft 271 kts 288°
2026-05-09 02:09 16.66166 -99.45169 5310 ft 269 kts 288°
2026-05-09 02:09 16.66767 -99.47010 5059 ft 267 kts 288°
2026-05-09 02:09 16.67363 -99.48838 4824 ft 265 kts 288°
2026-05-09 02:10 16.67954 -99.50650 4596 ft 262 kts 288°
2026-05-09 02:10 16.68528 -99.52442 4403 ft 258 kts 289°
2026-05-09 02:10 16.69110 -99.54174 4322 ft 248 kts 288°
2026-05-09 02:10 16.69647 -99.55850 4265 ft 237 kts 287°
2026-05-09 02:11 16.70141 -99.57438 4177 ft 223 kts 287°
2026-05-09 02:11 16.70592 -99.58899 4005 ft 208 kts 287°
2026-05-09 02:11 16.71040 -99.60347 3481 ft 209 kts 287°
2026-05-09 02:11 16.71481 -99.61767 3011 ft 203 kts 287°
2026-05-09 02:12 16.71910 -99.63147 2508 ft 197 kts 287°
2026-05-09 02:12 16.72327 -99.64495 2011 ft 193 kts 287°
2026-05-09 02:12 16.72736 -99.65815 1495 ft 188 kts 287°
2026-05-09 02:12 16.73125 -99.67075 1074 ft 179 kts 286°
2026-05-09 02:13 16.73457 -99.68240 973 ft 155 kts 283°
2026-05-09 02:13 16.73777 -99.69196 1109 ft 123 kts 291°
2026-05-09 02:13 16.74052 -99.70077 685 ft 139 kts 287°
2026-05-09 02:13 16.74345 -99.71009 597 ft 130 kts 287°
2026-05-09 02:14 16.74595 -99.71891 434 ft 127 kts 289°
2026-05-09 02:14 16.74921 -99.72824 522 ft 142 kts 288°
2026-05-09 02:14 16.75167 -99.73702 563 ft 126 kts 285°
2026-05-09 02:14 16.75453 -99.74629 36 ft 131 kts 286°
2026-05-09 02:15 16.75665 -99.75444 19 ft 104 kts 280°
2026-05-09 02:15 16.75860 -99.75868 19 ft 44 kts 288°
2026-05-09 02:15 16.75874 -99.75921 21 ft 0 kts 284°
2026-05-09 02:15 16.75906 -99.76011 19 ft 45 kts 293°